Reflectivity
-0 26 -12 -2 -9 0 26 22 10 9 10 22 17 24 19 36 21 11 33 31 31 20
1 -19 -17 -20 -16 -5 -6 -14 20 23 18 -20 1 9 17 11 -19 10 15 31 15 -3
-5 -18 -7 -6 -17 -20 -19 -20 -20 -7 -12 -20 -20 -20 -16 4 -9 -16 3 12 9 -0
-19 -20 -19 -8 -14 -11 -20 -20 -19 -14 -5 -20 -20 -20 -20 -12 7 4 -2 -3 0 2
-20 -20 -20 -20 -14 -20 -20 -20 -20 -12 20 -20 -20 -20 -20 -20 -20 -20 -20 -20 -10 -13
-20 -20 -20 -20 -20 -20 -20 -20 -20 -13 3 -20 -20 -20 -20 -20 -20 -20 -20 -20 -20 -20
-20 -20 -20 -20 -20 -20 -20 -20 -20 -20 -20 -20 -20 -20 -20 -20 -20 -20 -20 -20 -20 -20
-20 -20 -20 -20 -20 -20 -20 -20 -20 -20 -20 -20 -20 -20 -20 -20 -20 -20 -20 -20 -20 -20
-20 -20 -20 -20 -20 -20 -20 -20 -20 -20 -20 -20 -20 -20 -20 -20 -20 -20 -20 -20 -20 -20
-20 -20 -20 -20 -20 -20 -20 -20 -20 -20 -20 -20 -20 -20 -20 -20 -20 -20 -20 -20 -20 -20
-20 -20 -20 -20 -20 -20 -20 -20 -20 -20 -20 -20 -20 -20 -20 -20 -20 -20 -20 -20 -20 -20
-20 -20 -20 -20 -20 -20 -20 -20 -20 -20 -20 -20 -20 -20 -20 -13 -20 -20 -20 -20 -20 -20
-20 -20 -20 -20 -20 -20 -20 -20 -20 -20 -20 -20 -20 -20 -20 -20 -20 -20 -20 -20 -20 -20
-20 -20 -20 -20 -20 -20 -20 -20 -20 -20 -20 -20 -20 -20 -20 -20 -20 -20 -20 -20 -20 -20
Wind_Speed
1 3 6 8 6 7 8 8 9 10 9 10 10 7 9 7 8 6 5 5 5 5
4 2 2 4 5 5 5 5 10 11 10 9 9 7 7 5 7 7 6 8 7 6
4 4 3 3 4 5 5 7 9 9 7 8 8 8 8 7 7 8 5 5 7 6
5 4 4 3 3 4 4 5 6 6 8 9 10 9 8 7 7 8 7 6 7 7
5 5 5 5 4 4 5 5 6 6 7 9 9 9 8 8 6 7 6 6 6 6
9 8 6 5 5 4 4 5 6 7 8 11 10 10 9 8 8 7 7 7 6 6
9 9 8 8 6 4 5 6 7 7 7 8 8 8 8 7 7 6 5 5 5 6
9 9 9 9 8 6 6 6 6 6 6 7 7 6 8 8 8 7 8 6 6 5
9 10 10 9 8 8 8 7 8 8 8 7 5 8 9 8 8 8 8 8 7 5
10 10 10 9 8 9 9 8 9 9 9 9 8 11 12 10 7 7 7 7 5 4
11 12 11 10 8 9 8 10 11 10 10 9 7 12 13 13 8 7 7 8 9 8
13 14 13 12 11 8 8 9 8 8 9 10 8 13 13 11 8 8 8 8 9 8
12 12 13 12 10 9 8 10 8 8 9 11 8 14 16 13 6 8 7 7 8 11
11 11 11 11 9 8 8 9 9 7 6 7 10 12 18 18 7 8 7 6 6 6
Wind_Direction
53 204 220 229 223 218 221 210 192 197 192 176 166 165 158 171 161 167 160 200 212 219
13 339 248 242 243 231 224 211 198 194 186 174 179 176 166 174 156 170 169 193 205 215
2 356 321 279 241 231 220 209 200 184 169 165 165 170 173 183 183 167 187 195 202 207
349 336 325 308 287 258 216 201 181 162 163 168 173 169 183 186 177 182 184 190 206 217
342 329 314 311 305 263 243 208 181 159 171 171 174 174 179 175 177 189 190 195 206 223
350 335 316 301 276 259 240 217 192 184 181 180 181 180 180 190 185 190 202 199 207 227
350 330 310 302 290 260 229 211 200 200 196 189 185 187 174 178 184 189 203 207 216 217
339 330 319 299 286 264 230 217 216 210 205 197 193 184 181 181 193 192 204 201 211 216
339 332 329 306 266 244 241 228 208 203 204 208 204 184 191 192 190 199 201 197 205 202
338 331 326 313 275 248 234 222 227 220 202 209 215 197 193 196 199 199 202 200 196 194
336 327 324 318 297 268 240 223 218 215 210 207 215 203 199 198 210 210 208 203 202 196
334 327 326 321 313 289 251 237 229 225 212 210 206 203 203 197 206 207 209 207 201 184
320 322 316 312 306 291 262 245 222 211 214 214 211 196 200 193 197 210 210 201 203 195
312 312 313 306 301 285 264 248 236 229 216 225 214 210 206 198 189 214 208 203 200 206